This is the latest recevied weather packets stored in our database for station/object KC9GSD. If no packets are shown the sender has not sent any weather packets the latest 10 day(s).
| Time | Temp. | Humidity | Pressure | Rain* | Wind** | Luminosity | Snow |
|---|---|---|---|---|---|---|---|
| 1777845821 | 18.89° C | 42% | 1017.4 hPa | 0 mm | - | 53 W/m² | - |
| 1777845518 | 20° C | 46% | 1017.7 hPa | 0 mm | - | 140 W/m² | - |
| 1777845215 | 20.56° C | 38% | 1017.6 hPa | 0 mm | - | 397 W/m² | - |
| 1777844913 | 20.56° C | 48% | 1017.8 hPa | 0 mm | - | 413 W/m² | - |
| 1777844610 | 20° C | 39% | 1017.8 hPa | 0 mm | - | 430 W/m² | - |
| 1777844307 | 19.44° C | 42% | 1017.7 hPa | 0 mm | - | 448 W/m² | - |
| 1777844005 | 20° C | 40% | 1017.7 hPa | 0 mm | - | 459 W/m² | - |
| 1777843701 | 20° C | 45% | 1017.9 hPa | 0 mm | - | 474 W/m² | - |
| 1777843400 | 20° C | 45% | 1017.8 hPa | 0 mm | - | 495 W/m² | - |
| 1777843096 | 20° C | 42% | 1017.9 hPa | 0 mm | - | 506 W/m² | - |
| 1777842794 | 20° C | 42% | 1018 hPa | 0 mm | - | 526 W/m² | - |
| 1777842493 | 20° C | 43% | 1018 hPa | 0 mm | - | 538 W/m² | - |
| 1777842191 | 19.44° C | 48% | 1017.9 hPa | 0 mm | - | 552 W/m² | - |
| 1777841886 | 20° C | 43% | 1018.2 hPa | 0 mm | - | 569 W/m² | - |
| 1777841583 | 20.56° C | 40% | 1018.1 hPa | 0 mm | - | 586 W/m² | - |
| 1777841279 | 20.56° C | 43% | 1018.3 hPa | 0 mm | - | 598 W/m² | - |
| 1777840977 | 20° C | 46% | 1018.3 hPa | 0 mm | - | 611 W/m² | - |
| 1777840674 | 20° C | 40% | 1018.3 hPa | 0 mm | - | 622 W/m² | - |
| 1777840371 | 20.56° C | 43% | 1018.6 hPa | 0 mm | - | 635 W/m² | - |
| 1777840068 | 20° C | 37% | 1018.6 hPa | 0 mm | - | 647 W/m² | - |
| 1777839766 | 20° C | 37% | 1018.8 hPa | 0 mm | - | 656 W/m² | - |
| 1777839464 | 20° C | 37% | 1018.9 hPa | 0 mm | - | 672 W/m² | - |
| 1777839161 | 20° C | 41% | 1018.8 hPa | 0 mm | - | 687 W/m² | - |
| 1777838858 | 20° C | 43% | 1018.6 hPa | 0 mm | - | 697 W/m² | - |
| 1777838554 | 20° C | 42% | 1019.1 hPa | 0 mm | - | 706 W/m² | - |
* Rain latest hour (hover to see other rain measurements)
** Current wind speed in m/s (hover to see current wind gust speed)